Location: Campillo
(40.8621°N, 4.2488°W)
Time: 10:04:38
(UTC+00:00)

USA 290 - Pass Details

Date: 29 September 2021
Orbit: 397 x 413 km, 73.6° (Epoch: 06 October)

Event Time Altitude Azimuth Distance (km) Brightness Sun altitude
Exits shadow 05:15:37 13° 302° (WNW) 1,345 4.3 -11.4°
Drops below altitude 10° 05:17:04 10° 328° (NNW) 1,493 4.8 -11.1°
Sets 05:20:06 0° 360° (N) 2,361 6.1 -10.6°
